Radford, VA

5:36 AM EST on February 23, 2017 (GMT -0500)
New River Valley

Weather History for KPSK - November, 2012

Change the Weather History Date:

Sunday, November 18, 2012

  Actual Average (KBCB) Record (KBCB)
Temperature  
Mean Temperature 39 °F -  
Max Temperature 50 °F 54 °F 75 °F (2016)
Min Temperature 28 °F 29 °F 14 °F (1997)
Degree Days  
Heating Degree Days 26    
Moisture  
Dew Point 32 °F    
Average Humidity 75    
Maximum Humidity 93    
Minimum Humidity 58    
Precipitation  
Precipitation 0.00 in - - ()
Sea Level Pressure  
Sea Level Pressure 30.49 in    
Wind  
Wind Speed 2 mph (ENE)    
Max Wind Speed 10 mph    
Max Gust Speed -    
Visibility 10 miles    
Events      
Averages and records for this station are not official NWS values.
T = Trace of Precipitation, MM = Missing Value Source: NWS Daily Summary

Daily Weather History Graph

Daily Weather History Graph

Search for Another Location

Airport or City:

Trip Planner

Search our weather history database for the weather conditions in past years. The results will help you decide how hot, cold, wet, or windy it might be!

Date:

Astronomy

Nov. 18, 2012 Rise Set
Actual Time 7:05 AM EST 5:10 PM EST
Civil Twilight 6:37 AM EST 5:38 PM EST
Nautical Twilight 6:05 AM EST 6:10 PM EST
Astronomical Twilight 5:34 AM EST 6:40 PM EST
Moon 11:32 AM EST (11/18) 10:26 PM EST (11/18)
Length of Visible Light 11h 01m
Length of Day
10h 05m
Waxing Crescent, 30% of the Moon is Illuminated
Nov 18
Waxing Crescent
Nov 20
First Quarter
Nov 28
Full
Dec 6
Last Quarter
Dec 13
New

Hourly Weather History & Observations

Time (EST) Temp. Windchill Dew Point Humidity Pressure Visibility Wind Dir Wind Speed Gust Speed Precip Events Conditions
12:15 AM 35.6 °F 32.8 °F 24.8 °F 65% 30.50 in 10.0 mi ENE 3.5 mph - N/A   Clear
12:35 AM 35.6 °F 30.7 °F 24.8 °F 65% 30.50 in 10.0 mi East 5.8 mph - N/A   Clear
12:55 AM 30.2 °F - 24.8 °F 80% 30.50 in 10.0 mi Calm Calm - N/A   Clear
1:15 AM 30.2 °F - 26.6 °F 86% 30.50 in 10.0 mi Calm Calm - N/A   Clear
1:35 AM 30.2 °F - 24.8 °F 80% 30.50 in 10.0 mi Calm Calm - N/A   Clear
1:55 AM 32.0 °F - 26.6 °F 80% 30.50 in 10.0 mi Calm Calm - N/A   Clear
2:15 AM 30.2 °F - 24.8 °F 80% 30.50 in 10.0 mi Calm Calm - N/A   Clear
2:55 AM 30.2 °F - 26.6 °F 86% 30.51 in 10.0 mi Calm Calm - N/A   Clear
3:15 AM 32.0 °F - 26.6 °F 80% 30.51 in 10.0 mi Calm Calm - N/A   Clear
3:35 AM 33.8 °F - 26.6 °F 75% 30.50 in 10.0 mi Calm Calm - N/A   Clear
3:55 AM 32.0 °F - 26.6 °F 80% 30.51 in 10.0 mi Calm Calm - N/A   Scattered Clouds
4:15 AM 28.4 °F - 26.6 °F 93% 30.50 in 10.0 mi Calm Calm - N/A   Mostly Cloudy
4:35 AM 30.2 °F - 26.6 °F 86% 30.51 in 10.0 mi Calm Calm - N/A   Overcast
4:55 AM 30.2 °F - 26.6 °F 86% 30.51 in 10.0 mi Calm Calm - N/A   Overcast
5:15 AM 33.8 °F - 28.4 °F 81% 30.52 in 10.0 mi Calm Calm - N/A   Overcast
5:35 AM 33.8 °F - 28.4 °F 81% 30.52 in 10.0 mi Calm Calm - N/A   Overcast
5:55 AM 35.6 °F - 28.4 °F 75% 30.52 in 10.0 mi Calm Calm - N/A   Overcast
6:15 AM 37.4 °F - 28.4 °F 70% 30.52 in 10.0 mi Calm Calm - N/A   Overcast
6:35 AM 37.4 °F - 28.4 °F 70% 30.52 in 10.0 mi Calm Calm - N/A   Overcast
6:55 AM 37.4 °F - 28.4 °F 70% 30.53 in 10.0 mi Calm Calm - N/A   Overcast
7:15 AM 37.4 °F - 28.4 °F 70% 30.53 in 10.0 mi Calm Calm - N/A   Overcast
7:35 AM 37.4 °F - 30.2 °F 75% 30.52 in 10.0 mi Calm Calm - N/A   Overcast
7:55 AM 37.4 °F - 32.0 °F 81% 30.53 in 10.0 mi Calm Calm - N/A   Overcast
8:15 AM 35.6 °F - 32.0 °F 87% 30.52 in 10.0 mi Calm Calm - N/A   Overcast
8:35 AM 37.4 °F - 32.0 °F 81% 30.53 in 10.0 mi Calm Calm - N/A   Overcast
8:55 AM 39.2 °F - 32.0 °F 75% 30.53 in 10.0 mi Calm Calm - N/A   Overcast
9:15 AM 42.8 °F 41.1 °F 33.8 °F 70% 30.52 in 10.0 mi NE 3.5 mph - N/A   Overcast
9:35 AM 42.8 °F 39.3 °F 33.8 °F 70% 30.52 in 10.0 mi East 5.8 mph - N/A   Mostly Cloudy
9:55 AM 42.8 °F 41.1 °F 33.8 °F 70% 30.53 in 10.0 mi ENE 3.5 mph - N/A   Scattered Clouds
10:15 AM 42.8 °F - 33.8 °F 70% 30.53 in 10.0 mi Calm Calm - N/A   Mostly Cloudy
10:35 AM 44.6 °F 43.1 °F 33.8 °F 66% 30.53 in 10.0 mi ENE 3.5 mph - N/A   Overcast
10:55 AM 44.6 °F 41.4 °F 35.6 °F 71% 30.53 in 10.0 mi NE 5.8 mph - N/A   Overcast
11:15 AM 46.4 °F 42.9 °F 35.6 °F 66% 30.52 in 10.0 mi NE 6.9 mph - N/A   Overcast
11:35 AM 46.4 °F 42.4 °F 35.6 °F 66% 30.51 in 10.0 mi East 8.1 mph - N/A   Overcast
11:55 AM 48.2 °F - 35.6 °F 62% 30.50 in 10.0 mi East 6.9 mph - N/A   Overcast
12:15 PM 48.2 °F - 37.4 °F 66% 30.49 in 10.0 mi ENE 10.4 mph - N/A   Overcast
12:35 PM 48.2 °F - 37.4 °F 66% 30.49 in 10.0 mi ENE 9.2 mph - N/A   Overcast
12:55 PM 48.2 °F - 37.4 °F 66% 30.48 in 10.0 mi ENE 6.9 mph - N/A   Mostly Cloudy
1:15 PM 48.2 °F - 37.4 °F 66% 30.47 in 10.0 mi East 9.2 mph - N/A   Scattered Clouds
1:35 PM 48.2 °F - 37.4 °F 66% 30.47 in 10.0 mi ESE 8.1 mph - N/A   Scattered Clouds
1:55 PM 48.2 °F - 37.4 °F 66% 30.45 in 10.0 mi East 6.9 mph - N/A   Scattered Clouds
2:15 PM 48.2 °F - 37.4 °F 66% 30.45 in 10.0 mi East 9.2 mph - N/A   Clear
2:35 PM 48.2 °F - 37.4 °F 66% 30.44 in 10.0 mi ENE 4.6 mph - N/A   Clear
2:55 PM 48.2 °F - 37.4 °F 66% 30.44 in 10.0 mi ENE 5.8 mph - N/A   Clear
3:15 PM 50.0 °F - 37.4 °F 62% 30.44 in 10.0 mi ENE 4.6 mph - N/A   Clear
3:35 PM 50.0 °F - 35.6 °F 58% 30.44 in 10.0 mi East 6.9 mph - N/A   Clear
3:55 PM 50.0 °F - 35.6 °F 58% 30.44 in 10.0 mi ENE 6.9 mph - N/A   Clear
4:15 PM 50.0 °F - 35.6 °F 58% 30.44 in 10.0 mi East 4.6 mph - N/A   Clear
4:35 PM 48.2 °F - 35.6 °F 62% 30.44 in 10.0 mi East 3.5 mph - N/A   Clear
4:55 PM 48.2 °F - 35.6 °F 62% 30.45 in 10.0 mi East 5.8 mph - N/A   Clear
5:15 PM 46.4 °F 45.2 °F 35.6 °F 66% 30.45 in 10.0 mi East 3.5 mph - N/A   Clear
5:35 PM 44.6 °F 43.1 °F 33.8 °F 66% 30.45 in 10.0 mi East 3.5 mph - N/A   Clear
5:55 PM 44.6 °F - 33.8 °F 66% 30.45 in 10.0 mi Calm Calm - N/A   Clear
6:15 PM 42.8 °F - 33.8 °F 70% 30.45 in 10.0 mi Calm Calm - N/A   Clear
6:35 PM 42.8 °F - 33.8 °F 70% 30.45 in 10.0 mi Calm Calm - N/A   Clear
6:55 PM 39.2 °F - 33.8 °F 81% 30.46 in 10.0 mi Calm Calm - N/A   Clear
7:15 PM 37.4 °F - 33.8 °F 87% 30.46 in 10.0 mi Calm Calm - N/A   Clear
7:35 PM 37.4 °F - 33.8 °F 87% 30.45 in 10.0 mi Calm Calm - N/A   Clear
7:55 PM 41.0 °F - 35.6 °F 81% 30.46 in 10.0 mi Calm Calm - N/A   Clear
8:15 PM 39.2 °F - 33.8 °F 81% 30.46 in 10.0 mi Calm Calm - N/A   Clear
8:35 PM 39.2 °F - 33.8 °F 81% 30.46 in 10.0 mi Calm Calm - N/A   Clear
8:55 PM 39.2 °F 37.0 °F 33.8 °F 81% 30.46 in 10.0 mi ENE 3.5 mph - N/A   Clear
9:15 PM 37.4 °F 34.9 °F 33.8 °F 87% 30.46 in 10.0 mi ENE 3.5 mph - N/A   Clear
9:35 PM 37.4 °F - 33.8 °F 87% 30.46 in 10.0 mi Calm Calm - N/A   Clear
9:55 PM 33.8 °F - 30.2 °F 87% 30.46 in 10.0 mi Calm Calm - N/A   Clear
10:15 PM 32.0 °F - 30.2 °F 93% 30.46 in 10.0 mi Calm Calm - N/A   Scattered Clouds
10:35 PM 32.0 °F - 30.2 °F 93% 30.45 in 10.0 mi Calm Calm - N/A   Scattered Clouds
10:55 PM 35.6 °F - 33.8 °F 93% 30.45 in 10.0 mi Calm Calm - N/A   Mostly Cloudy
11:15 PM 33.8 °F - 32.0 °F 93% 30.44 in 10.0 mi Calm Calm - N/A   Overcast
11:35 PM 35.6 °F - 33.8 °F 93% 30.45 in 10.0 mi Calm Calm - N/A   Overcast